Benton Harbor, MI

3:24 PM EDT on July 28, 2017 (GMT -0400)
Southwest Michigan Regional

Weather History for KBEH - January, 2013

Change the Weather History Date:

Wednesday, January 30, 2013

  Actual Average Record
Temperature  
Mean Temperature 39 °F -  
Max Temperature 50 °F 31 °F 56 °F (1988)
Min Temperature 27 °F 19 °F -8 °F (1949)
Degree Days  
Heating Degree Days 26    
Moisture  
Dew Point 36 °F    
Average Humidity 93    
Maximum Humidity 100    
Minimum Humidity 78    
Precipitation  
Precipitation 0.67 in - - ()
Sea Level Pressure  
Sea Level Pressure 29.31 in    
Wind  
Wind Speed 8 mph (WNW)    
Max Wind Speed 23 mph    
Max Gust Speed 39 mph    
Visibility 3 miles    
Events Rain , Snow    
Averages and records for this station are not official NWS values.
T = Trace of Precipitation, MM = Missing Value Source: NWS Daily Summary

Daily Weather History Graph

Daily Weather History Graph

Search for Another Location

Airport or City:

Trip Planner

Search our weather history database for the weather conditions in past years. The results will help you decide how hot, cold, wet, or windy it might be!

Date:

Astronomy

Jan. 30, 2013 Rise Set
Actual Time 8:00 AM EST 5:58 PM EST
Civil Twilight 7:30 AM EST 6:27 PM EST
Nautical Twilight 6:57 AM EST 7:01 PM EST
Astronomical Twilight 6:24 AM EST 7:34 PM EST
Moon 10:01 PM EST (1/30) 9:23 AM EST (1/30)
Length of Visible Light 10h 57m
Length of Day
9h 57m
Waning Gibbous, 88% of the Moon is Illuminated
Jan 30
Waning Gibbous
Feb 3
Last Quarter
Feb 10
New
Feb 17
First Quarter
Feb 25
Full

Hourly Weather History & Observations

Time (EST) Temp. Windchill Dew Point Humidity Pressure Visibility Wind Dir Wind Speed Gust Speed Precip Events Conditions
12:07 AM 50.0 °F - 50.0 °F 100% 29.41 in 0.8 mi West 3.5 mph - 0.02 in Rain Light Rain
12:21 AM 50.0 °F - 50.0 °F 100% 29.40 in 1.2 mi West 5.8 mph - 0.07 in Rain Rain
12:28 AM 50.0 °F - 50.0 °F 100% 29.40 in 2.0 mi West 6.9 mph - 0.09 in Rain Rain
12:53 AM 48.0 °F - 48.0 °F 100% 29.42 in 2.5 mi West 10.4 mph - 0.17 in Rain Rain
1:16 AM 46.4 °F 44.3 °F 46.4 °F 100% 29.40 in 3.0 mi NW 4.6 mph - 0.07 in Rain Rain
1:53 AM 46.0 °F - 45.0 °F 96% 29.39 in 4.0 mi Calm Calm - 0.14 in Rain Rain
2:01 AM 46.4 °F - 44.6 °F 93% 29.38 in 4.0 mi Calm Calm - 0.02 in Rain Rain
2:08 AM 46.4 °F - 44.6 °F 93% 29.37 in 4.0 mi Calm Calm - 0.03 in Rain Rain
2:53 AM 46.9 °F - 46.0 °F 97% 29.34 in 5.0 mi SE 6.9 mph - 0.09 in Rain Rain
3:36 AM 48.2 °F - 48.2 °F 100% 29.34 in 3.0 mi Calm Calm - 0.04 in Rain Rain
3:53 AM 48.0 °F - 46.9 °F 96% 29.36 in 2.5 mi WSW 4.6 mph - 0.08 in Rain Rain
4:20 AM 44.6 °F 39.7 °F 44.6 °F 100% 29.38 in 2.5 mi NW 9.2 mph 18.4 mph 0.07 in Rain Rain
4:23 AM 42.8 °F 38.6 °F 42.8 °F 100% 29.38 in 3.0 mi NW 6.9 mph 18.4 mph 0.07 in Rain Rain
4:53 AM 41.0 °F 39.0 °F 39.9 °F 96% 29.38 in 4.0 mi NNW 3.5 mph - 0.12 in Rain Light Rain
5:53 AM 39.9 °F 35.1 °F 39.9 °F 100% 29.28 in 2.5 mi East 6.9 mph - 0.01 in   Overcast
6:05 AM 41.0 °F 39.0 °F 39.2 °F 93% 29.28 in 4.0 mi East 3.5 mph - N/A   Overcast
6:47 AM 39.2 °F - 39.2 °F 100% 29.32 in 1.8 mi Calm Calm - 0.00 in Rain Light Rain
6:53 AM 39.0 °F 35.7 °F 39.0 °F 100% 29.34 in 1.5 mi WNW 4.6 mph - 0.01 in Rain Light Rain
7:05 AM 37.4 °F 34.9 °F 37.4 °F 100% 29.32 in 1.0 mi West 3.5 mph - 0.00 in   Mist
7:16 AM 37.4 °F - 37.4 °F 100% 29.31 in 0.8 mi Calm Calm - 0.00 in   Mist
7:26 AM 37.4 °F 31.4 °F 37.4 °F 100% 29.32 in 0.8 mi WNW 8.1 mph - 0.00 in   Mist
7:40 AM 37.4 °F 32.8 °F 37.4 °F 100% 29.31 in 1.5 mi West 5.8 mph - 0.00 in   Overcast
7:48 AM 39.2 °F 35.9 °F 37.4 °F 93% 29.30 in 2.5 mi WNW 4.6 mph - 0.00 in   Overcast
7:53 AM 39.0 °F 35.7 °F 39.0 °F 100% 29.31 in 2.5 mi NW 4.6 mph - 0.00 in   Overcast
8:03 AM 39.2 °F 37.0 °F 37.4 °F 93% 29.30 in 3.0 mi NW 3.5 mph - N/A   Overcast
8:11 AM 39.2 °F 37.0 °F 39.2 °F 100% 29.31 in 1.8 mi Variable 3.5 mph - N/A   Overcast
8:21 AM 37.4 °F 32.8 °F 37.4 °F 100% 29.31 in 1.2 mi NNW 5.8 mph - N/A   Overcast
8:40 AM 37.4 °F 33.8 °F 37.4 °F 100% 29.31 in 1.8 mi NNW 4.6 mph - N/A   Overcast
8:53 AM 37.9 °F - 37.0 °F 97% 29.34 in 1.2 mi Calm Calm - N/A   Overcast
9:11 AM 37.4 °F - 37.4 °F 100% 29.32 in 1.5 mi Calm Calm - 0.01 in   Overcast
9:23 AM 37.4 °F - 37.4 °F 100% 29.31 in 2.5 mi Calm Calm - 0.01 in   Overcast
9:39 AM 39.2 °F - 37.4 °F 93% 29.30 in 3.0 mi Calm Calm - 0.01 in   Overcast
9:49 AM 39.2 °F - 37.4 °F 93% 29.30 in 2.5 mi Calm Calm - 0.01 in   Overcast
9:50 AM 39.0 °F - 37.9 °F 96% 29.31 in 2.5 mi Calm Calm - 0.01 in   Overcast
10:09 AM 39.2 °F - 37.4 °F 93% 29.30 in 3.0 mi Calm Calm - N/A   Overcast
10:53 AM 39.9 °F 37.8 °F 39.0 °F 97% 29.28 in 2.5 mi SSE 3.5 mph - N/A   Overcast
11:07 AM 41.0 °F 39.0 °F 39.2 °F 93% 29.28 in 4.0 mi South 3.5 mph - N/A   Overcast
11:53 AM 42.1 °F 37.1 °F 41.0 °F 96% 29.24 in 8.0 mi SSE 8.1 mph - N/A   Overcast
12:22 PM 44.6 °F 40.7 °F 42.8 °F 93% 29.21 in 10.0 mi SSE 6.9 mph 16.1 mph N/A   Overcast
12:53 PM 45.0 °F 38.9 °F 43.0 °F 93% 29.20 in 7.0 mi South 12.7 mph - N/A   Overcast
1:00 PM 44.6 °F 39.2 °F 44.6 °F 100% 29.19 in 3.0 mi South 10.4 mph 18.4 mph N/A   Overcast
1:27 PM 46.4 °F 41.9 °F 44.6 °F 93% 29.17 in 6.0 mi SSW 9.2 mph 18.4 mph 0.00 in   Overcast
1:42 PM 48.2 °F - 46.4 °F 93% 29.17 in 10.0 mi SSW 13.8 mph - 0.00 in   Overcast
1:53 PM 48.0 °F - 46.0 °F 93% 29.17 in 10.0 mi SSW 12.7 mph 20.7 mph 0.00 in   Overcast
2:13 PM 48.2 °F - 46.4 °F 93% 29.16 in 10.0 mi SSW 10.4 mph 21.9 mph N/A   Overcast
3:00 PM 48.2 °F - 44.6 °F 87% 29.16 in 10.0 mi WSW 20.7 mph 27.6 mph 0.00 in   Overcast
3:16 PM 46.4 °F 38.3 °F 42.8 °F 87% 29.17 in 10.0 mi WSW 23.0 mph 28.8 mph 0.00 in Rain Light Rain
3:38 PM 41.0 °F 32.2 °F 39.2 °F 93% 29.18 in 2.5 mi West 18.4 mph 25.3 mph 0.01 in   Overcast
3:45 PM 39.2 °F 32.5 °F 39.2 °F 100% 29.18 in 2.5 mi WSW 10.4 mph - 0.01 in   Overcast
3:53 PM 39.9 °F 33.4 °F 39.0 °F 97% 29.18 in 5.0 mi West 10.4 mph - 0.01 in   Overcast
4:39 PM 37.4 °F 30.3 °F 37.4 °F 100% 29.20 in 5.0 mi WNW 10.4 mph - N/A   Overcast
4:53 PM 37.0 °F 31.0 °F 36.0 °F 96% 29.22 in 2.5 mi West 8.1 mph - N/A   Overcast
5:21 PM 37.4 °F 30.3 °F 35.6 °F 93% 29.21 in 2.5 mi WNW 10.4 mph - N/A   Overcast
5:30 PM 35.6 °F 28.6 °F 35.6 °F 100% 29.21 in 1.5 mi WNW 9.2 mph 17.3 mph 0.01 in   Overcast
5:48 PM 35.6 °F 28.6 °F 33.8 °F 93% 29.22 in 2.5 mi NW 9.2 mph 17.3 mph 0.01 in   Overcast
5:53 PM 35.1 °F 27.4 °F 33.1 °F 92% 29.24 in 2.5 mi NW 10.4 mph - 0.01 in   Overcast
6:03 PM 33.8 °F 25.8 °F 32.0 °F 93% 29.22 in 1.8 mi NW 10.4 mph 20.7 mph 0.00 in Snow Light Snow
6:13 PM 33.8 °F 24.3 °F 32.0 °F 93% 29.24 in 2.0 mi WNW 13.8 mph 21.9 mph 0.01 in Snow Light Snow
6:30 PM 33.8 °F 25.3 °F 32.0 °F 93% 29.25 in 3.0 mi WNW 11.5 mph 21.9 mph 0.01 in Snow Light Snow
6:48 PM 33.8 °F 23.9 °F 30.2 °F 87% 29.27 in 1.8 mi WNW 15.0 mph 23.0 mph 0.01 in Snow Light Snow
6:49 PM 33.1 °F 23.9 °F 30.9 °F 92% 29.29 in 1.8 mi NW 12.7 mph 23.0 mph 0.01 in Snow Light Snow
7:01 PM 33.8 °F 24.3 °F 30.2 °F 87% 29.28 in 1.2 mi WNW 13.8 mph 23.0 mph 0.00 in Snow Light Snow
7:19 PM 32.0 °F 20.8 °F 28.4 °F 87% 29.30 in 2.0 mi WNW 17.3 mph 33.4 mph 0.00 in Snow Light Snow
7:24 PM 32.0 °F 21.6 °F 28.4 °F 87% 29.31 in 3.0 mi NW 15.0 mph 28.8 mph 0.00 in Snow Light Snow
7:28 PM 32.0 °F 20.1 °F 28.4 °F 87% 29.31 in 2.5 mi WNW 19.6 mph 29.9 mph 0.00 in Snow Light Snow
7:40 PM 30.2 °F 18.1 °F 28.4 °F 93% 29.33 in 1.8 mi WNW 18.4 mph 31.1 mph 0.01 in Snow Light Snow
7:53 PM 30.9 °F 21.2 °F 28.0 °F 89% 29.35 in 1.5 mi WNW 12.7 mph 31.1 mph 0.01 in Snow Light Snow
8:04 PM 30.2 °F 18.5 °F 28.4 °F 93% 29.34 in 1.2 mi WNW 17.3 mph 28.8 mph 0.00 in Snow Light Snow
8:21 PM 30.2 °F 18.5 °F 26.6 °F 86% 29.35 in 1.5 mi WNW 17.3 mph 29.9 mph 0.00 in Snow Light Snow
8:31 PM 30.2 °F 18.1 °F 26.6 °F 86% 29.35 in 3.0 mi WNW 18.4 mph 28.8 mph 0.00 in Snow Light Snow
8:53 PM 30.0 °F 17.9 °F 27.0 °F 88% 29.38 in 1.5 mi WNW 18.4 mph 26.5 mph 0.00 in Snow Light Snow
8:58 PM 30.2 °F 18.1 °F 26.6 °F 86% 29.37 in 1.0 mi WNW 18.4 mph 25.3 mph 0.00 in Snow Light Snow
9:05 PM 28.4 °F 16.6 °F 26.6 °F 93% 29.37 in 1.0 mi WNW 16.1 mph 28.8 mph 0.00 in Snow Light Snow
9:10 PM 30.2 °F 17.4 °F 24.8 °F 80% 29.37 in 2.0 mi WNW 20.7 mph 29.9 mph 0.00 in Snow Light Snow
9:25 PM 28.4 °F 15.4 °F 24.8 °F 86% 29.38 in 1.8 mi WNW 19.6 mph 32.2 mph 0.00 in Snow Light Snow
9:34 PM 28.4 °F 17.0 °F 24.8 °F 86% 29.38 in 2.5 mi WNW 15.0 mph 31.1 mph 0.00 in Snow Light Snow
9:45 PM 28.4 °F 16.2 °F 24.8 °F 86% 29.39 in 1.8 mi WNW 17.3 mph 28.8 mph 0.00 in Snow Light Snow
9:53 PM 28.9 °F 16.9 °F 25.0 °F 85% 29.41 in 1.2 mi WNW 17.3 mph 26.5 mph 0.00 in Snow Light Snow
10:09 PM 28.4 °F 17.0 °F 24.8 °F 86% 29.40 in 2.0 mi WNW 15.0 mph 27.6 mph 0.00 in Snow Light Snow
10:20 PM 28.4 °F 17.0 °F 24.8 °F 86% 29.41 in 5.0 mi WNW 15.0 mph 27.6 mph 0.00 in Snow Light Snow
10:30 PM 28.4 °F 16.6 °F 23.0 °F 80% 29.41 in 8.0 mi WNW 16.1 mph 26.5 mph 0.00 in Snow Light Snow
10:53 PM 28.9 °F 15.8 °F 24.1 °F 82% 29.45 in 1.8 mi WNW 20.7 mph 34.5 mph 0.00 in Snow Light Snow
11:02 PM 28.4 °F 16.2 °F 24.8 °F 86% 29.43 in 1.2 mi WNW 17.3 mph 33.4 mph 0.00 in Snow Light Snow
11:09 PM 28.4 °F 15.1 °F 24.8 °F 86% 29.44 in 2.0 mi West 20.7 mph 27.6 mph 0.00 in Snow Light Snow
11:18 PM 28.4 °F 14.7 °F 23.0 °F 80% 29.45 in 3.0 mi WNW 21.9 mph 39.1 mph 0.00 in Snow Light Snow
11:53 PM 27.0 °F 13.5 °F 21.0 °F 78% 29.49 in 4.0 mi WNW 19.6 mph 35.7 mph 0.00 in Snow Light Snow